Tracking 25734 objects as of 26-May-2022
HD Live streaming from Space Station
objects crossing your sky now

COSMOS 2251 DEB

Track COSMOS 2251 DEB now!
10-day predictions


NORAD ID: 34057
Int'l Code: 1993-036JU
Perigee: 688.6 km
Apogee: 729.6 km
Inclination: 74.0 °
Period: 98.8 minutes
Semi major axis: 7080 km
RCS: 0.092 m2 (small)
Launch date: June 16, 1993
Source: Commonwealth of Independent States (former USSR) (CIS)
Launch site: PLESETSK MISSILE AND SPACE COMPLEX (PKMTR)

Note: This is SATELLITE DEBRIS
aabbcc
Your satellite tracking list
Your tracking list is empty




NASA's NSSDC Master Catalog

Two Line Element Set (TLE):
1 34057U 93036JU  22145.89604021  .00003672  00000-0  81320-3 0  9999
2 34057  74.0232 299.3870 0028911   4.3897 119.0396 14.57285649701603
Source of the keplerian elements: AFSPC